Location: Julian California
(33.0790°N, 116.6010°W)
Time: 08:26:14
(UTC-07:00)

CZ-2D R/B - Pass Details

Date: 19 May 2017
Orbit: 523 x 542 km, 97.5° (Epoch: 21 May)

Event Time Altitude Azimuth Distance (km) Brightness Sun altitude
Rises 20:01:51 0° 156° (SSE) 2,658 6.3 -4.5°
Reaches altitude 10° 20:03:59 10° 151° (SSE) 1,768 5.4 -4.9°
Maximum altitude 20:07:41 50° 76° (ENE) 677 3.5 -5.6°
Drops below altitude 10° 20:11:23 10° 0° (N) 1,770 6.3 -6.3°
Sets 20:13:32 0° 355° (N) 2,660 7.3 -6.7°
